Weather History for Lexington, NE

Change the Weather History Date:

Wednesday, November 21, 2012

  Actual Average Record
Temperature  
Mean Temperature 48 °F -  
Max Temperature 67 °F 44 °F 68 °F (2006)
Min Temperature 29 °F 22 °F 3 °F (2000)
Degree Days  
Heating Degree Days 17    
Moisture  
Dew Point 27 °F    
Average Humidity 47    
Maximum Humidity 85    
Minimum Humidity 19    
Precipitation  
Precipitation 0.00 in - - ()
Sea Level Pressure  
Sea Level Pressure 29.92 in    
Wind  
Wind Speed 6 mph (South)    
Max Wind Speed 17 mph    
Max Gust Speed 22 mph    
Visibility 10 miles    
Events      
Averages and records for this station are not official NWS values.
T = Trace of Precipitation, MM = Missing Value Source: NWS Daily Summary

Daily Weather History Graph

Daily Weather History Graph

Search for Another Location

Airport:

Trip Planner

Search our weather history database for the weather conditions in past years. The results will help you decide how hot, cold, wet, or windy it might be!

Date:

Astronomy

Nov. 21, 2012 Rise Set
Actual Time 7:33 AM CST 5:16 PM CST
Civil Twilight 7:03 AM CST 5:46 PM CST
Nautical Twilight 6:30 AM CST 6:19 PM CST
Astronomical Twilight 5:57 AM CST 6:52 PM CST
Moon 1:35 PM CST (11/21) 12:52 AM CST (11/21)
Length of Visible Light 10h 42m
Length of Day
9h 42m
First Quarter, 62% of the Moon is Illuminated
Nov 21
First Quarter
Nov 28
Full
Dec 6
Last Quarter
Dec 13
New
Dec 19
First Quarter

Hourly Weather History & Observations

Time (CST) Temp. Windchill Dew Point Humidity Pressure Visibility Wind Dir Wind Speed Gust Speed Precip Events Conditions
12:15 AM 49.3 °F - 31.8 °F 51% 30.07 in 10.0 mi South 4.6 mph - N/A   Clear
12:35 AM 48.4 °F - 31.3 °F 52% 30.07 in 10.0 mi South 3.5 mph - N/A   Clear
12:55 AM 47.1 °F - 30.9 °F 53% 30.06 in 10.0 mi Calm Calm - N/A   Clear
1:15 AM 44.6 °F 43.1 °F 30.7 °F 58% 30.06 in 10.0 mi South 3.5 mph - N/A   Clear
1:35 AM 41.9 °F 39.0 °F 30.2 °F 63% 30.06 in 10.0 mi SSW 4.6 mph - N/A   Clear
1:55 AM 50.4 °F - 32.9 °F 51% 30.06 in 10.0 mi SSW 10.4 mph 19.6 mph N/A   Clear
2:15 AM 48.0 °F - 32.2 °F 54% 30.06 in 10.0 mi SW 8.1 mph - N/A   Clear
2:35 AM 48.0 °F - 32.2 °F 54% 30.06 in 10.0 mi SW 10.4 mph - N/A   Clear
2:55 AM 46.6 °F - 32.0 °F 57% 30.06 in 10.0 mi SW 8.1 mph - N/A   Clear
3:15 AM 47.7 °F - 32.2 °F 55% 30.05 in 10.0 mi SSW 6.9 mph - N/A   Clear
3:35 AM 42.4 °F - 31.6 °F 66% 30.05 in 10.0 mi Calm Calm - N/A   Clear
3:55 AM 40.1 °F 38.0 °F 30.7 °F 69% 30.04 in 10.0 mi East 3.5 mph - N/A   Clear
4:15 AM 43.2 °F - 31.1 °F 62% 30.04 in 10.0 mi Calm Calm - N/A   Clear
4:35 AM 44.4 °F - 31.3 °F 60% 30.03 in 10.0 mi Calm Calm - N/A   Clear
4:55 AM 44.2 °F - 31.6 °F 61% 30.03 in 10.0 mi Calm Calm - N/A   Clear
5:15 AM 30.7 °F 27.3 °F 25.2 °F 80% 30.03 in 10.0 mi SE 3.5 mph - N/A   Clear
5:35 AM 30.7 °F - 26.4 °F 84% 30.03 in 10.0 mi Calm Calm - N/A   Clear
5:55 AM 29.8 °F 23.9 °F 25.9 °F 85% 30.02 in 10.0 mi ESE 5.8 mph - N/A   Clear
6:15 AM 35.4 °F 28.4 °F 29.3 °F 78% 30.01 in 10.0 mi SE 9.2 mph - N/A   Clear
6:35 AM 34.5 °F 28.6 °F 29.3 °F 81% 30.01 in 10.0 mi ESE 6.9 mph - N/A   Clear
6:55 AM 35.4 °F 30.5 °F 29.8 °F 80% 30.01 in 10.0 mi ESE 5.8 mph - N/A   Clear
7:15 AM 36.3 °F 32.5 °F 30.6 °F 80% 30.01 in 10.0 mi ESE 4.6 mph - N/A   Clear
7:35 AM 35.8 °F 31.9 °F 29.7 °F 78% 30.00 in 10.0 mi ESE 4.6 mph - N/A   Clear
7:55 AM 31.8 °F 28.5 °F 26.8 °F 82% 30.00 in 7.0 mi ESE 3.5 mph - N/A   Clear
8:15 AM 32.9 °F - 28.4 °F 84% 30.00 in 10.0 mi Calm Calm - N/A   Clear
8:35 AM 42.1 °F 37.1 °F 32.0 °F 67% 29.99 in 10.0 mi South 8.1 mph - N/A   Clear
8:55 AM 45.7 °F 42.7 °F 31.3 °F 57% 30.00 in 10.0 mi South 5.8 mph - N/A   Clear
9:15 AM 47.5 °F - 31.5 °F 54% 29.99 in 10.0 mi South 16.1 mph - N/A   Clear
9:35 AM 49.5 °F - 31.5 °F 50% 30.00 in 10.0 mi SSW 6.9 mph - N/A   Clear
9:55 AM 51.4 °F - 30.0 °F 44% 29.99 in 10.0 mi SSW 9.2 mph - N/A   Clear
10:15 AM 52.3 °F - 28.6 °F 40% 29.98 in 10.0 mi SSW 11.5 mph - N/A   Clear
10:35 AM 53.8 °F - 28.2 °F 37% 29.98 in 10.0 mi South 13.8 mph - N/A   Clear
10:55 AM 55.0 °F - 27.5 °F 35% 29.97 in 10.0 mi South 10.4 mph - N/A   Clear
11:15 AM 55.9 °F - 27.1 °F 33% 29.97 in 10.0 mi South 12.7 mph - N/A   Clear
11:35 AM 56.7 °F - 27.5 °F 33% 29.96 in 10.0 mi South 13.8 mph 17.3 mph N/A   Clear
11:55 AM 57.6 °F - 28.0 °F 32% 29.95 in 10.0 mi SSW 16.1 mph 21.9 mph N/A   Clear
12:15 PM 58.8 °F - 28.4 °F 31% 29.93 in 10.0 mi South 17.3 mph - N/A   Clear
12:35 PM 59.9 °F - 28.8 °F 31% 29.91 in 10.0 mi South 15.0 mph 21.9 mph N/A   Clear
12:55 PM 61.2 °F - 27.9 °F 28% 29.90 in 10.0 mi South 13.8 mph 18.4 mph N/A   Clear
1:15 PM 62.1 °F - 27.3 °F 27% 29.90 in 10.0 mi South 12.7 mph 18.4 mph N/A   Clear
1:35 PM 63.5 °F - 27.3 °F 25% 29.89 in 10.0 mi South 13.8 mph 18.4 mph N/A   Clear
1:55 PM 64.6 °F - 26.8 °F 24% 29.88 in 10.0 mi SSW 11.5 mph - N/A   Clear
2:15 PM 65.5 °F - 26.6 °F 23% 29.86 in 10.0 mi SSW 13.8 mph 19.6 mph N/A   Clear
2:35 PM 66.2 °F - 25.9 °F 22% 29.86 in 10.0 mi South 17.3 mph - N/A   Clear
2:55 PM 67.1 °F - 24.6 °F 20% 29.85 in 10.0 mi South 13.8 mph 18.4 mph N/A   Clear
3:15 PM 67.3 °F - 24.1 °F 20% 29.85 in 10.0 mi SSW 13.8 mph - N/A   Clear
3:35 PM 67.5 °F - 23.9 °F 19% 29.84 in 10.0 mi South 12.7 mph - N/A   Clear
3:55 PM 67.3 °F - 23.9 °F 19% 29.84 in 10.0 mi South 9.2 mph - N/A   Clear
4:15 PM 67.1 °F - 23.9 °F 20% 29.84 in 10.0 mi South 9.2 mph - N/A   Clear
4:35 PM 65.5 °F - 24.3 °F 21% 29.83 in 10.0 mi South 8.1 mph - N/A   Clear
4:55 PM 62.1 °F - 24.3 °F 24% 29.83 in 10.0 mi South 5.8 mph - N/A   Clear
5:15 PM 58.5 °F - 23.9 °F 26% 29.83 in 7.0 mi South 8.1 mph - N/A   Clear
5:35 PM 57.7 °F - 23.7 °F 27% 29.83 in 5.0 mi South 5.8 mph - N/A   Haze
5:55 PM 57.7 °F - 23.9 °F 27% 29.83 in 7.0 mi South 3.5 mph - N/A   Clear
6:15 PM 56.7 °F - 23.2 °F 27% 29.82 in 7.0 mi South 6.9 mph - N/A   Clear
6:35 PM 51.3 °F - 22.6 °F 33% 29.81 in 10.0 mi South 11.5 mph - N/A   Clear
6:55 PM 52.5 °F - 22.3 °F 31% 29.81 in 10.0 mi South 9.2 mph - N/A   Clear
7:15 PM 48.4 °F - 21.4 °F 35% 29.81 in 10.0 mi SSE 5.8 mph - N/A   Clear
7:35 PM 50.7 °F - 23.0 °F 34% 29.80 in 10.0 mi SSE 8.1 mph - N/A   Clear
7:55 PM 48.0 °F - 22.5 °F 37% 29.80 in 10.0 mi SSE 6.9 mph - N/A   Clear
8:15 PM 49.8 °F - 22.8 °F 35% 29.79 in 10.0 mi SE 5.8 mph - N/A   Clear
8:35 PM 48.0 °F - 22.8 °F 37% 29.79 in 10.0 mi SSE 9.2 mph - N/A   Clear
8:55 PM 48.0 °F - 23.5 °F 38% 29.78 in 10.0 mi SSE 9.2 mph - N/A   Clear
9:15 PM 47.3 °F - 23.9 °F 40% 29.78 in 10.0 mi SSE 9.2 mph - N/A   Clear
9:35 PM 49.8 °F - 26.1 °F 40% 29.78 in 10.0 mi SE 3.5 mph - N/A   Clear
9:55 PM 52.0 °F - 27.3 °F 39% 29.78 in 10.0 mi South 4.6 mph - N/A   Clear
10:15 PM 49.8 °F - 27.1 °F 41% 29.78 in 10.0 mi South 6.9 mph - N/A   Clear
10:35 PM 46.2 °F - 27.1 °F 47% 29.77 in 10.0 mi Calm Calm - N/A   Clear
10:55 PM 34.2 °F - 21.9 °F 61% 29.77 in 7.0 mi Calm Calm - N/A   Clear
11:15 PM 32.9 °F - 21.9 °F 64% 29.78 in 10.0 mi Calm Calm - N/A   Clear
11:35 PM 34.3 °F - 22.6 °F 62% 29.77 in 10.0 mi Calm Calm - N/A   Clear
11:55 PM 30.9 °F 27.5 °F 21.2 °F 67% 29.77 in 10.0 mi North 3.5 mph - N/A   Clear